星链-6322 (STARLINK-6322 )

导读 | 星芒AI

STARLINK-6322 是 SpaceX 星链计划中的一颗低轨通信卫星,属于第63批发射的星链卫星群。该卫星旨在为全球用户提供高速互联网服务,尤其关注网络覆盖不足的地区。它运行在约550公里高度的近地轨道,采用先进的推进系统和激光通信技术,以提升网络连接的稳定性和效率。星链项目通过部署大量此类卫星,构建全球宽带网络,支持远程教育、医疗和商业应用,具有重要的社会和经济意义。

基本信息
目录编号:
57337
目录名称:
STARLINK-6322
国际标识:
2023-099K
轨道中心:
EARTH
卫星名称:
星链-6322
卫星全名:
星链-6322 (STARLINK-6322 )
卫星状态:
在轨 (已飞行889 天)
发射日期:
2023-07-16 UTC
国别 :
美国 (US)
星等 :
--
轨道信息
数据来源 国际轨道数据
星历时间: 2025-12-21T13:39:08+0800
13小时前
查看轨道信息
半长轴: 6937.229km
偏心率: 0.000125
轨道倾角: 43.005°
近地点辐角 268.705°
升交点赤经 315.393°
平近点角 91.365°
近地点: 558.224km
远地点: 559.96km
周期: 95.838分钟
每日圈数: 15.025321
详细信息
固有亮度:
5
最大亮度:
2.5
卫星平台:
Starlink v1.5
覆盖范围:
全球
运营商:
太空探索技术公司
运营商所在国:
美国
制造商(研发单位):
太空探索技术公司
制造商所在国:
美国
使用方式:
暂无
卫星简介
星链(Starlink)计划是由太空探索技术公司(SpaceX)提出的一个巨型低轨卫星互联网星座项目,计划在2019年至2024年间在太空搭建由约1.2万颗卫星组成的“星链”网络,其中1584颗将部署在地球上空550千米处的近地轨道,并从2020年开始工作。该卫星仍在工作。
2D轨道图
3D轨道图
轨道高度分析图
轨道倾角分析图
轨道综合分析图
查看轨道综合分析图